Ada, OK

7:15 AM CST on December 03, 2016 (GMT -0600)
Ada Municipal

Weather History for KADH - December, 2013

Change the Weather History Date:

Tuesday, December 3, 2013

  Actual Average Record
Temperature  
Mean Temperature 52 °F -  
Max Temperature 60 °F 55 °F 77 °F (1933)
Min Temperature 44 °F 33 °F 14 °F (1985)
Degree Days  
Heating Degree Days 13    
Growing Degree Days 2 (Base 50)    
Moisture  
Dew Point 48 °F    
Average Humidity 95    
Maximum Humidity 100    
Minimum Humidity 72    
Precipitation  
Precipitation 0.00 in - - ()
Sea Level Pressure  
Sea Level Pressure 29.58 in    
Wind  
Wind Speed 9 mph (SE)    
Max Wind Speed 14 mph    
Max Gust Speed 17 mph    
Visibility 4 miles    
Events Fog    
Averages and records for this station are not official NWS values.
T = Trace of Precipitation, MM = Missing Value Source: NWS Daily Summary

Daily Weather History Graph

Daily Weather History Graph

Search for Another Location

Airport or City:

Trip Planner

Search our weather history database for the weather conditions in past years. The results will help you decide how hot, cold, wet, or windy it might be!

Date:

Astronomy

Dec. 03, 2013 Rise Set
Actual Time 7:17 AM CST 5:15 PM CST
Civil Twilight 6:50 AM CST 5:43 PM CST
Nautical Twilight 6:18 AM CST 6:14 PM CST
Astronomical Twilight 5:48 AM CST 6:44 PM CST
Moon 7:49 AM CST 6:19 PM CST
Length of Visible Light 10h 52m
Length of Day
9h 57m
New Moon, 1% of the Moon is Illuminated
Dec 3
New Moon
Dec 9
First Quarter
Dec 17
Full
Dec 25
Last Quarter
Jan 1
New

Hourly Weather History & Observations

Time (CST) Temp. Windchill Dew Point Humidity Pressure Visibility Wind Dir Wind Speed Gust Speed Precip Events Conditions
12:10 AM 46.4 °F 41.9 °F 46.4 °F 100% 29.67 in 0.2 mi SSE 9.2 mph - N/A Fog Fog
12:35 AM 46.4 °F 42.4 °F 46.4 °F 100% 29.65 in 0.2 mi SE 8.1 mph - N/A Fog Fog
12:55 AM 46.4 °F 42.9 °F 46.4 °F 100% 29.66 in 0.2 mi SSE 6.9 mph - N/A Fog Fog
1:15 AM 46.4 °F 41.5 °F 46.4 °F 100% 29.65 in 0.2 mi SSE 10.4 mph - N/A Fog Fog
1:35 AM 46.4 °F 42.4 °F 46.4 °F 100% 29.64 in 0.2 mi SSE 8.1 mph - N/A Fog Fog
1:55 AM 46.4 °F 41.5 °F 46.4 °F 100% 29.63 in 0.2 mi SSE 10.4 mph - N/A Fog Fog
2:15 AM 46.4 °F 42.9 °F 46.4 °F 100% 29.63 in 0.2 mi SSE 6.9 mph - N/A Fog Fog
2:35 AM 46.4 °F 42.9 °F 46.4 °F 100% 29.62 in 0.2 mi SSE 6.9 mph - N/A Fog Fog
2:55 AM 46.4 °F 41.9 °F 46.4 °F 100% 29.62 in 0.2 mi SE 9.2 mph - N/A Fog Fog
3:15 AM 46.4 °F 43.5 °F 46.4 °F 100% 29.63 in 0.2 mi SSE 5.8 mph - N/A Fog Fog
3:35 AM 46.4 °F 42.4 °F 46.4 °F 100% 29.62 in 0.2 mi SE 8.1 mph - N/A Fog Fog
3:55 AM 46.4 °F 41.9 °F 46.4 °F 100% 29.60 in 0.2 mi SSE 9.2 mph - N/A Fog Fog
4:15 AM 46.4 °F 41.9 °F 46.4 °F 100% 29.59 in 0.2 mi SSE 9.2 mph - N/A Fog Fog
4:35 AM 46.4 °F 42.4 °F 46.4 °F 100% 29.59 in 0.2 mi SE 8.1 mph - N/A Fog Fog
4:55 AM 46.4 °F 41.9 °F 46.4 °F 100% 29.59 in 0.2 mi SE 9.2 mph - N/A Fog Fog
5:15 AM 44.6 °F 41.4 °F 44.6 °F 100% 29.59 in 0.2 mi SSE 5.8 mph - N/A Fog Fog
5:35 AM 46.4 °F 43.5 °F 46.4 °F 100% 29.60 in 0.2 mi SSE 5.8 mph - N/A Fog Fog
5:55 AM 44.6 °F 41.4 °F 44.6 °F 100% 29.59 in 0.2 mi SE 5.8 mph - N/A Fog Fog
6:15 AM 44.6 °F 40.7 °F 44.6 °F 100% 29.59 in 0.2 mi SE 6.9 mph - N/A Fog Fog
6:35 AM 44.6 °F 39.7 °F 44.6 °F 100% 29.59 in 0.2 mi SE 9.2 mph - N/A Fog Fog
6:55 AM 44.6 °F 39.7 °F 44.6 °F 100% 29.60 in 0.2 mi SE 9.2 mph - N/A Fog Fog
7:15 AM 44.6 °F 39.2 °F 44.6 °F 100% 29.60 in 0.2 mi ESE 10.4 mph - N/A Fog Fog
7:35 AM 44.6 °F 38.8 °F 44.6 °F 100% 29.60 in 0.2 mi SE 11.5 mph - N/A Fog Fog
7:55 AM 44.6 °F 38.8 °F 44.6 °F 100% 29.60 in 0.2 mi SE 11.5 mph - N/A Fog Fog
8:15 AM 44.6 °F 39.2 °F 44.6 °F 100% 29.59 in 0.2 mi SE 10.4 mph - N/A Fog Fog
8:35 AM 44.6 °F 38.1 °F 44.6 °F 100% 29.60 in 0.2 mi SE 13.8 mph 17.3 mph N/A Fog Fog
8:55 AM 46.4 °F 42.9 °F 46.4 °F 100% 29.60 in 0.2 mi SE 6.9 mph - N/A Fog Fog
9:15 AM 46.4 °F 42.9 °F 46.4 °F 100% 29.60 in 0.2 mi SE 6.9 mph - N/A Fog Fog
9:35 AM 46.4 °F 41.5 °F 46.4 °F 100% 29.60 in 0.2 mi SE 10.4 mph - N/A Fog Fog
9:55 AM 46.4 °F 41.5 °F 46.4 °F 100% 29.60 in 1.2 mi SE 10.4 mph - N/A   Overcast
10:15 AM 48.2 °F - 48.2 °F 100% 29.60 in 1.5 mi ESE 11.5 mph - N/A   Overcast
10:30 AM 48.2 °F - 48.2 °F 100% 29.59 in 3.0 mi SE 9.2 mph - N/A   Overcast
11:15 AM 51.8 °F - 51.8 °F 100% 29.60 in 5.0 mi SE 10.4 mph - N/A   Overcast
11:35 AM 53.6 °F - 51.8 °F 94% 29.59 in 7.0 mi SSE 6.9 mph - N/A   Mostly Cloudy
11:55 AM 51.8 °F - 51.8 °F 100% 29.58 in 7.0 mi ESE 8.1 mph - N/A   Mostly Cloudy
12:15 PM 55.4 °F - 51.8 °F 88% 29.57 in 10.0 mi SSE 6.9 mph - N/A   Scattered Clouds
12:35 PM 55.4 °F - 51.8 °F 88% 29.55 in 10.0 mi SSE 9.2 mph - N/A   Clear
12:55 PM 55.4 °F - 51.8 °F 88% 29.54 in 10.0 mi SSE 6.9 mph - N/A   Clear
1:15 PM 57.2 °F - 51.8 °F 82% 29.53 in 10.0 mi SSE 9.2 mph - N/A   Clear
1:35 PM 59.0 °F - 51.8 °F 77% 29.53 in 10.0 mi SSE 8.1 mph - N/A   Clear
1:55 PM 59.0 °F - 51.8 °F 77% 29.52 in 10.0 mi SE 10.4 mph - N/A   Clear
2:15 PM 60.8 °F - 53.6 °F 77% 29.51 in 10.0 mi SE 9.2 mph - N/A   Clear
2:35 PM 60.8 °F - 51.8 °F 72% 29.51 in 10.0 mi SSE 10.4 mph - N/A   Clear
2:55 PM 60.8 °F - 51.8 °F 72% 29.50 in 10.0 mi SSE 9.2 mph - N/A   Clear
3:15 PM 59.0 °F - 51.8 °F 77% 29.50 in 10.0 mi SSE 10.4 mph - N/A   Clear
3:35 PM 59.0 °F - 51.8 °F 77% 29.52 in 10.0 mi SSE 10.4 mph - N/A   Clear
3:55 PM 59.0 °F - 51.8 °F 77% 29.53 in 10.0 mi SE 9.2 mph - N/A   Clear
4:15 PM 59.0 °F - 51.8 °F 77% 29.53 in 10.0 mi SSE 8.1 mph - N/A   Clear
4:35 PM 55.4 °F - 51.8 °F 88% 29.54 in 10.0 mi SSE 8.1 mph - N/A   Clear
4:55 PM 55.4 °F - 50.0 °F 82% 29.54 in 10.0 mi SE 8.1 mph - N/A   Clear
5:15 PM 53.6 °F - 50.0 °F 88% 29.55 in 10.0 mi SE 9.2 mph - N/A   Clear
5:35 PM 51.8 °F - 50.0 °F 94% 29.55 in 10.0 mi SE 6.9 mph - N/A   Clear
5:55 PM 50.0 °F - 48.2 °F 94% 29.55 in 10.0 mi SE 8.1 mph - N/A   Clear
6:15 PM 50.0 °F - 48.2 °F 94% 29.57 in 10.0 mi SE 6.9 mph - N/A   Clear
6:35 PM 50.0 °F - 48.2 °F 94% 29.57 in 10.0 mi SE 8.1 mph - N/A   Clear
6:55 PM 48.2 °F - 48.2 °F 100% 29.57 in 10.0 mi SE 8.1 mph - N/A   Clear
7:15 PM 46.4 °F 42.4 °F 46.4 °F 100% 29.58 in 10.0 mi SE 8.1 mph - N/A   Clear
7:35 PM 46.4 °F 42.4 °F 46.4 °F 100% 29.58 in 7.0 mi SE 8.1 mph - N/A   Clear
7:55 PM 46.4 °F 42.4 °F 46.4 °F 100% 29.58 in 5.0 mi SE 8.1 mph - N/A   Clear
8:15 PM 46.4 °F 42.4 °F 46.4 °F 100% 29.58 in 5.0 mi SE 8.1 mph - N/A   Clear
8:35 PM 46.4 °F 42.4 °F 46.4 °F 100% 29.57 in 5.0 mi SE 8.1 mph - N/A   Clear
8:55 PM 46.4 °F 42.9 °F 46.4 °F 100% 29.58 in 4.0 mi SE 6.9 mph - N/A   Clear
9:15 PM 46.4 °F 41.9 °F 46.4 °F 100% 29.57 in 5.0 mi SE 9.2 mph - N/A   Clear
9:35 PM 46.4 °F 41.5 °F 46.4 °F 100% 29.58 in 5.0 mi SE 10.4 mph - N/A   Clear
9:55 PM 46.4 °F 41.5 °F 46.4 °F 100% 29.57 in 4.0 mi SSE 10.4 mph - N/A   Clear
10:15 PM 46.4 °F 41.5 °F 46.4 °F 100% 29.57 in 3.0 mi SE 10.4 mph - N/A   Clear
10:35 PM 46.4 °F 40.7 °F 46.4 °F 100% 29.57 in 2.0 mi SSE 12.7 mph 16.1 mph N/A   Mostly Cloudy
10:55 PM 46.4 °F 41.1 °F 46.4 °F 100% 29.57 in 1.2 mi SE 11.5 mph - N/A   Overcast
11:15 PM 46.4 °F 41.9 °F 46.4 °F 100% 29.56 in 1.8 mi SE 9.2 mph - N/A   Overcast
11:35 PM 46.4 °F 41.9 °F 46.4 °F 100% 29.56 in 4.0 mi SE 9.2 mph - N/A   Scattered Clouds
11:50 PM 46.4 °F 41.5 °F 46.4 °F 100% 29.55 in 4.0 mi SE 10.4 mph - N/A   Clear